Location: Kumla
(59.1265°N, 15.1401°E)
Time: 04:47:57
(UTC+01:00)

Vanguard 2 Rocket - Pass Details

Date: 04 December 2023
Orbit: 554 x 3309 km, 32.9° (Epoch: 27 February)

Event Time Altitude Azimuth Distance (km) Brightness Sun altitude
Rises 15:21:29 0° 223° (SW) 6,784 14.5 -2.2°
Reaches altitude 10° 15:26:56 10° 213° (SSW) 6,026 12.7 -2.8°
Maximum altitude 15:41:11 26° 166° (SSE) 4,982 11.0 -4.2°
Drops below altitude 10° 15:54:58 10° 120° (ESE) 5,839 10.8 -5.6°
Sets 16:00:05 0° 109° (ESE) 6,546 10.9 -6.1°
